Date String (YYYY-MM-DD hh:mm:ss) UTC,Instrument flags,absolute air pressure of the measurement (hPa),sample flow rate (lpm),inlet stack bypass flow (lpm),air temperature of the measurement (°C),ambient temperature measured by the external sensor (°C),aerosol sample conditioner tube jacket temperature (°C),OPC LED temperature (°C),internal box temperature (°C),relative humidity of the measurement (%),span deviation,mass concentration of particles derived from Lorenz-Mie calculation of OPC scattering (μg/m³),mass concentration of particles derived from Lorenz-Mie calculation of OPC scattering (μg/m³),mass concentration of particles derived from Lorenz-Mie calculation of OPC scattering (μg/m³)
DateTimeUTC,F1_M11,P_M11,Q1_M11,Q2_M11,T1_M11,T2_M11,T3_M11,T4_M11,T5_M11,U1_M11,ZSPAN_M11,X0_M11,X2_M11,X1_M11
2024-04-24 10:00:00,SystemResetWarning,0830.4,5.00,000.00,025.4,024.7,000.0,034.0,027.3,021.0,0000.0,0010.46,0004.49,0003.55
2024-04-24 10:01:00,SystemResetWarning,0830.4,5.00,000.00,025.4,024.7,000.0,034.0,027.3,021.1,0000.0,0010.33,0004.47,0003.53
2024-04-24 10:02:00,SystemResetWarning,0830.4,5.00,000.00,025.4,024.6,000.0,034.0,027.2,021.1,0000.0,0010.25,0004.53,0003.55
2024-04-24 10:03:00,SystemResetWarning,0830.4,5.00,000.00,025.4,024.6,000.0,034.0,027.2,021.2,0000.0,0010.32,0004.58,0003.55
2024-04-24 10:04:00,SystemResetWarning,0830.4,5.00,000.00,025.4,024.6,000.0,034.0,027.2,021.2,0000.0,0009.90,0004.56,0003.56
2024-04-24 10:05:00,SystemResetWarning,0830.4,5.00,000.00,025.4,024.6,000.0,034.0,027.2,021.2,0000.0,0009.88,0004.58,0003.56
2024-04-24 10:06:00,SystemResetWarning,0830.5,5.00,000.00,025.4,024.6,000.0,034.0,027.2,021.2,0000.0,0010.21,0004.62,0003.57
2024-04-24 10:07:00,SystemResetWarning,0830.4,4.99,000.00,025.4,024.6,000.0,034.0,027.2,021.3,0000.0,0010.83,0004.64,0003.59
2024-04-24 10:08:00,SystemResetWarning,0830.4,5.00,000.00,025.4,024.6,000.0,034.0,027.2,021.3,0000.0,0011.11,0004.65,0003.60
2024-04-24 10:09:00,SystemResetWarning,0830.4,5.01,000.00,025.4,024.6,000.0,034.0,027.2,021.3,0000.0,0011.62,0004.66,0003.61
2024-04-24 10:10:00,SystemResetWarning,0830.4,5.01,000.00,025.3,024.6,000.0,033.9,027.2,021.4,0000.0,0011.82,0004.70,0003.63
2024-04-24 10:11:00,SystemResetWarning,0830.4,5.00,000.00,025.3,024.6,000.0,033.9,027.2,021.4,0000.0,0011.74,0004.72,0003.65
2024-04-24 10:12:00,SystemResetWarning,0830.4,5.00,000.00,025.3,024.5,000.0,033.9,027.1,021.4,0000.0,0011.71,0004.73,0003.65
2024-04-24 10:13:00,SystemResetWarning,0830.3,4.99,000.00,025.3,024.5,000.0,033.9,027.1,021.4,0000.0,0011.67,0004.71,0003.64
2024-04-24 10:14:00,SystemResetWarning,0830.3,5.00,000.00,025.3,024.5,000.0,033.9,027.1,021.4,0000.0,0011.71,0004.73,0003.63
2024-04-24 10:15:00,SystemResetWarning,0830.3,4.99,000.00,025.3,024.5,000.0,033.9,027.1,021.4,0000.0,0011.83,0004.76,0003.63
2024-04-24 10:16:00,SystemResetWarning,0830.3,5.00,000.00,025.3,024.5,000.0,033.9,027.1,021.4,0000.0,0011.72,0004.74,0003.63
2024-04-24 10:17:00,SystemResetWarning,0830.3,5.01,000.00,025.3,024.5,000.0,033.9,027.1,021.4,0000.0,0011.56,0004.70,0003.63
2024-04-24 10:18:00,SystemResetWarning,0830.2,5.00,000.00,025.3,024.5,000.0,033.9,027.1,021.4,0000.0,0011.24,0004.74,0003.63
2024-04-24 10:19:00,SystemResetWarning,0830.2,5.01,000.00,025.3,024.5,000.0,033.9,027.1,021.4,0000.0,0011.23,0004.77,0003.64
2024-04-24 10:20:00,SystemResetWarning,0830.2,5.00,000.00,025.3,024.5,000.0,033.9,027.1,021.4,0000.0,0010.85,0004.76,0003.63
2024-04-24 10:21:00,SystemResetWarning,0830.3,4.99,000.00,025.3,024.5,000.0,033.9,027.1,021.5,0000.0,0010.68,0004.73,0003.63
2024-04-24 10:22:00,SystemResetWarning,0830.2,4.99,000.00,025.3,024.5,000.0,033.9,027.1,021.4,0000.0,0010.83,0004.70,0003.62
2024-04-24 10:23:00,SystemResetWarning,0830.2,5.00,000.00,025.3,024.5,000.0,033.9,027.1,021.4,0000.0,0010.94,0004.68,0003.64
2024-04-24 10:24:00,SystemResetWarning,0830.1,5.01,000.00,025.2,024.5,000.0,033.9,027.1,021.4,0000.0,0010.84,0004.65,0003.64
2024-04-24 10:25:00,SystemResetWarning,0830.2,5.00,000.00,025.2,024.4,000.0,033.8,027.1,021.4,0000.0,0010.64,0004.60,0003.64
2024-04-24 10:26:00,SystemResetWarning,0830.2,4.99,000.00,025.2,024.4,000.0,033.8,027.0,021.4,0000.0,0010.51,0004.56,0003.65
2024-04-24 10:27:00,SystemResetWarning,0830.2,4.99,000.00,025.2,024.4,000.0,033.8,027.0,021.5,0000.0,0010.84,0004.57,0003.66
2024-04-24 10:28:00,SystemResetWarning,0830.1,4.99,000.00,025.2,024.4,000.0,033.8,027.0,021.5,0000.0,0011.39,0004.56,0003.66
2024-04-24 10:29:00,SystemResetWarning,0830.1,5.00,000.00,025.2,024.4,000.0,033.8,027.0,021.4,0000.0,0011.07,0004.50,0003.65
2024-04-24 10:30:00,SystemResetWarning,0830.1,5.01,000.00,025.2,024.4,000.0,033.8,027.0,021.4,0000.0,0011.09,0004.49,0003.65
2024-04-24 10:31:00,SystemResetWarning,0830.1,5.01,000.00,025.2,024.4,000.0,033.8,027.0,021.4,0000.0,0011.11,0004.47,0003.65
2024-04-24 10:32:00,SystemResetWarning,0830.1,4.99,000.00,025.2,024.4,000.0,033.8,027.0,021.5,0000.0,0011.03,0004.48,0003.66
2024-04-24 10:33:00,SystemResetWarning,0830.1,4.99,000.00,025.2,024.4,000.0,033.8,027.0,021.5,0000.0,0011.07,0004.54,0003.68
2024-04-24 10:34:00,SystemResetWarning,0830.0,4.99,000.00,025.2,024.4,000.0,033.8,027.0,021.5,0000.0,0010.79,0004.53,0003.68
2024-04-24 10:35:00,SystemResetWarning,0830.0,5.00,000.00,025.1,024.3,000.0,033.8,027.0,021.5,0000.0,0011.50,0004.53,0003.68
2024-04-24 10:36:00,SystemResetWarning,0830.0,5.01,000.00,025.1,024.3,000.0,033.7,027.0,021.5,0000.0,0011.64,0004.55,0003.69
2024-04-24 10:37:00,SystemResetWarning,0830.1,5.00,000.00,025.1,024.3,000.0,033.7,026.9,021.5,0000.0,0011.89,0004.57,0003.70
2024-04-24 10:38:00,SystemResetWarning,0830.1,4.99,000.00,025.1,024.3,000.0,033.7,026.9,021.6,0000.0,0012.21,0004.59,0003.70
2024-04-24 10:39:00,SystemResetWarning,0830.1,4.99,000.00,025.1,024.3,000.0,033.7,026.9,021.6,0000.0,0011.78,0004.64,0003.71
2024-04-24 10:40:00,SystemResetWarning,0830.1,4.99,000.00,025.1,024.3,000.0,033.7,026.9,021.6,0000.0,0011.87,0004.73,0003.72
2024-04-24 10:41:00,SystemResetWarning,0830.0,5.00,000.00,025.1,024.3,000.0,033.7,026.9,021.5,0000.0,0011.49,0004.76,0003.72
2024-04-24 10:42:00,SystemResetWarning,0830.0,5.02,000.00,025.1,024.3,000.0,033.7,026.9,021.6,0000.0,0011.28,0004.76,0003.73
2024-04-24 10:43:00,SystemResetWarning,0830.0,5.01,000.00,025.1,024.3,000.0,033.7,026.9,021.6,0000.0,0011.21,0004.72,0003.71
2024-04-24 10:44:00,SystemResetWarning,0830.0,5.00,000.00,025.1,024.3,000.0,033.7,026.9,021.6,0000.0,0011.23,0004.66,0003.70
2024-04-24 10:45:00,SystemResetWarning,0830.1,5.00,000.00,025.1,024.3,000.0,033.7,026.9,021.6,0000.0,0011.31,0004.68,0003.70
2024-04-24 10:46:00,SystemResetWarning,0830.1,4.99,000.00,025.1,024.3,000.0,033.7,026.9,021.6,0000.0,0010.86,0004.70,0003.70
2024-04-24 10:47:00,SystemResetWarning,0830.1,4.99,000.00,025.0,024.3,000.0,033.7,026.9,021.6,0000.0,0010.70,0004.67,0003.69
2024-04-24 10:48:00,SystemResetWarning,0830.1,4.99,000.00,025.0,024.2,000.0,033.6,026.8,021.6,0000.0,0010.77,0004.67,0003.68
2024-04-24 10:49:00,SystemResetWarning,0830.1,5.00,000.00,025.0,024.2,000.0,033.6,026.8,021.6,0000.0,0010.37,0004.69,0003.70
2024-04-24 10:50:00,SystemResetWarning,0830.0,5.00,000.00,025.0,024.2,000.0,033.6,026.8,021.6,0000.0,0010.43,0004.69,0003.70
2024-04-24 10:51:00,SystemResetWarning,0830.1,5.00,000.00,025.0,024.2,000.0,033.6,026.8,021.6,0000.0,0009.71,0004.65,0003.69
2024-04-24 10:52:00,SystemResetWarning,0830.0,5.00,000.00,025.0,024.2,000.0,033.6,026.8,021.6,0000.0,0009.61,0004.59,0003.69
2024-04-24 10:53:00,SystemResetWarning,0830.0,5.00,000.00,025.0,024.2,000.0,033.6,026.8,021.6,0000.0,0009.59,0004.62,0003.69
2024-04-24 10:54:00,SystemResetWarning,0830.0,5.00,000.00,025.0,024.2,000.0,033.6,026.8,021.6,0000.0,0009.68,0004.65,0003.71
2024-04-24 10:55:00,SystemResetWarning,0830.0,5.00,000.00,025.0,024.2,000.0,033.6,026.8,021.6,0000.0,0009.65,0004.69,0003.72
2024-04-24 10:56:00,SystemResetWarning,0830.0,5.00,000.00,025.0,024.2,000.0,033.6,026.8,021.6,0000.0,0009.43,0004.64,0003.73
2024-04-24 10:57:00,SystemResetWarning,0830.0,5.00,000.00,025.0,024.2,000.0,033.6,026.8,021.6,0000.0,0009.46,0004.64,0003.74
2024-04-24 10:58:00,SystemResetWarning,0830.1,5.00,000.00,025.0,024.2,000.0,033.6,026.8,021.7,0000.0,0009.98,0004.61,0003.74
2024-04-24 10:59:00,SystemResetWarning,0830.1,4.98,000.00,025.0,024.2,000.0,033.6,026.8,021.6,0000.0,0010.13,0004.61,0003.75
